Regional Weather Roundup
Issued by NWS

Home | Current Version | Previous Version | Graphics & Text | Print | Product List | Glossary On
Versions: 1 2 3 4 5 6 7 8 9 10 11 12 13 14 15 16 17 18 19 20 21 22 23 24 25 26 27 28 29 30 31 32 33 34 35 36 37 38 39 40 41 42 43 44 45 46 47 48 49 50
451
ASUS43 KFSD 261210
RWRSD

WEATHER ROUNDUP FOR SOUTH DAKOTA
NATIONAL WEATHER SERVICE SIOUX FALLS SD
700 AM CDT WED APR 26 2017

NOTE: "FAIR" INDICATES FEW OR NO CLOUDS BELOW 12,000 FEET WITH NO
SIGNIFICANT WEATHER AND/OR OBSTRUCTIONS TO VISIBILITY.


SDZ001>005-009-010-012>017-261300-
NORTHWEST AND NORTH CENTRAL SOUTH DAKOTA

CITY           SKY/WX    TMP DP  RH WIND       PRES   REMARKS
BUFFALO          N/A     31  25  78 N8        29.80S WCI  23
FAITH            N/A     30  27  88 N16       29.85R WCI  19
MOBRIDGE       CLOUDY    34  23  64 N18G29    29.79S WCI  23
$$

SDZ012>016-024>037-041>051-057-063-072>074-261300-
SOUTHWEST AND SOUTH CENTRAL SOUTH DAKOTA

CITY           SKY/WX    TMP DP  RH WIND       PRES   REMARKS
RAPID CTY ARPT CLOUDY    28  23  81 NW17      29.86R WCI  16
PIERRE         CLOUDY    32  27  81 N16       29.80R WCI  21
CUSTER         CLOUDY    20  15  81 CALM      29.76R
ELLSWORTH AFB  CLOUDY    28  26  95 NW20      29.85R WCI  14
PHILIP         CLOUDY    32  29  88 NW14      29.85R WCI  22
PINE RIDGE     CLOUDY    29  26  89 NW8       29.86R WCI  21
SPEARFISH      CLOUDY    23  23 100 NW9       29.85S WCI  13
WINNER         CLOUDY    33  29  85 NW20      29.80R WCI  21
$$

SDZ004>011-016>023-039-040-261300-
NORTHEAST SOUTH DAKOTA

CITY           SKY/WX    TMP DP  RH WIND       PRES   REMARKS
ABERDEEN       FLURRIES  30  26  85 N21       29.76R WCI  17
WATERTOWN      CLOUDY    29  28  96 N18       29.66R WCI  16
BROOKINGS      CLOUDY    31  30  96 N13G21    29.65R WCI  21
SISSETON         N/A     30  29  96 N20       29.70R WCI  17
$$

SDZ017-020-022-023-036>040-048>070-261300-
SOUTHEAST SOUTH DAKOTA

CITY           SKY/WX    TMP DP  RH WIND       PRES   REMARKS
SIOUX FALLS    CLOUDY    35  34  96 NW14G22   29.65R WCI  26
HURON          CLOUDY    31  29  92 N16       29.75R WCI  20
CHAMBERLAIN    CLOUDY    34  31  86 W13       29.79R WCI  25
MITCHELL       CLOUDY    33  30  88 NW18      29.74R WCI  22
YANKTON        CLOUDY   N/A N/A N/A NW18G25   29.69F
$$

ABBREVIATIONS USED IN REMARKS
   TC - TEMPERATURE IN CELSIUS
  WCI - WIND CHILL INDEX
   HX - HEAT INDEX
  VSB - VISIBILITY





USA.gov is the U.S. government's official web portal to all federal, state and local government web resources and services.